TimeEDT,TemperatureF,Dew PointF,Humidity,Sea Level PressureIn,VisibilityMPH,Wind Direction,Wind SpeedMPH,Gust SpeedMPH,PrecipitationIn,Events,Conditions,WindDirDegrees,DateUTC
12:54 AM,48.0,44.1,86,30.18,10.0,SW,4.6,-,N/A,,Clear,230,2012-09-11 04:54:00
1:54 AM,46.9,44.1,90,30.19,10.0,SW,4.6,-,N/A,,Clear,230,2012-09-11 05:54:00
2:54 AM,46.0,44.1,93,30.20,10.0,SW,4.6,-,N/A,,Partly Cloudy,230,2012-09-11 06:54:00
3:54 AM,46.0,44.1,93,30.21,10.0,WSW,4.6,-,N/A,,Clear,240,2012-09-11 07:54:00
4:54 AM,46.0,44.1,93,30.22,10.0,SW,5.8,-,N/A,,Partly Cloudy,220,2012-09-11 08:54:00
5:54 AM,46.9,44.1,90,30.24,10.0,SW,5.8,-,N/A,,Scattered Clouds,220,2012-09-11 09:54:00
6:54 AM,46.9,45.0,93,30.25,10.0,SSW,5.8,-,N/A,,Mostly Cloudy,210,2012-09-11 10:54:00
7:54 AM,48.9,46.0,90,30.27,10.0,SW,9.2,-,N/A,,Mostly Cloudy,220,2012-09-11 11:54:00
8:54 AM,53.1,48.9,86,30.27,10.0,SW,5.8,-,N/A,,Overcast,220,2012-09-11 12:54:00
9:54 AM,57.0,50.0,77,30.28,10.0,SSW,5.8,-,N/A,,Overcast,210,2012-09-11 13:54:00
10:54 AM,63.0,53.1,70,30.27,10.0,SSW,4.6,-,N/A,,Mostly Cloudy,210,2012-09-11 14:54:00
11:54 AM,69.1,52.0,54,30.26,10.0,Variable,5.8,-,N/A,,Scattered Clouds,0,2012-09-11 15:54:00
12:54 PM,72.0,51.1,48,30.26,10.0,NW,9.2,-,N/A,,Scattered Clouds,310,2012-09-11 16:54:00
1:54 PM,72.0,46.9,41,30.25,10.0,SW,8.1,-,N/A,,Scattered Clouds,230,2012-09-11 17:54:00
2:54 PM,73.0,50.0,44,30.23,10.0,West,5.8,-,N/A,,Scattered Clouds,260,2012-09-11 18:54:00
3:54 PM,73.0,48.9,42,30.22,10.0,WSW,6.9,18.4,N/A,,Scattered Clouds,250,2012-09-11 19:54:00
4:54 PM,73.9,52.0,46,30.22,10.0,WSW,10.4,-,N/A,,Partly Cloudy,250,2012-09-11 20:54:00
5:54 PM,73.9,51.1,45,30.22,10.0,West,8.1,-,N/A,,Partly Cloudy,270,2012-09-11 21:54:00
6:54 PM,71.1,52.0,51,30.22,10.0,WNW,3.5,-,N/A,,Partly Cloudy,290,2012-09-11 22:54:00
7:54 PM,64.9,55.0,70,30.22,10.0,Calm,Calm,-,N/A,,Partly Cloudy,0,2012-09-11 23:54:00
8:54 PM,60.1,55.0,83,30.23,10.0,Calm,Calm,-,N/A,,Clear,0,2012-09-12 00:54:00
9:54 PM,57.9,54.0,87,30.24,10.0,SW,3.5,-,N/A,,Clear,220,2012-09-12 01:54:00
10:54 PM,57.0,54.0,89,30.24,10.0,SW,4.6,-,N/A,,Clear,220,2012-09-12 02:54:00
11:54 PM,57.9,53.1,84,30.24,10.0,SW,4.6,-,N/A,,Clear,220,2012-09-12 03:54:00